Stations météo

réclame
Mon MeteoGroup
Lahr, Allemagne (10805): Température de l'air & dewpoint: 14.03.2019 10:00:00 - 20.03.2019 10:00:00 (CET)Lahr, Allemagne (10805): Température de l'air 5cm & Température de l'air -5cm: 14.03.2019 10:00:00 - 20.03.2019 10:00:00 (CET)Lahr, Allemagne (10805): Température de l'air -20cm & Température de l'air -100cm: 14.03.2019 10:00:00 - 20.03.2019 10:00:00 (CET)Lahr, Allemagne (10805): Vitesse du vent & gusts: 14.03.2019 10:00:00 - 20.03.2019 10:00:00 (CET)Lahr, Allemagne (10805): Direction du vent: 14.03.2019 10:00:00 - 20.03.2019 10:00:00 (CET)Lahr, Allemagne (10805): reduced air pressure: 14.03.2019 10:00:00 - 20.03.2019 10:00:00 (CET)Lahr, Allemagne (10805): visibility: 14.03.2019 10:00:00 - 20.03.2019 10:00:00 (CET)Lahr, Allemagne (10805): Ensoleillement: 14.03.2019 10:00:00 - 20.03.2019 10:00:00 (CET)Lahr, Allemagne (10805): Quantités de précipitations: 14.03.2019 10:00:00 - 20.03.2019 10:00:00 (CET)
Date & Time tt [°C] td [°C] tt 5cm [°C] tt -5cm [°C] tt -20cm [°C] tt -100cm [°C] ff [km/h] ff [knt] fx [km/h] fx [knt] dd ppp [hPa] vv [km] sd [min] rr [mm]
20.03.2019 10:00:00 4,6 0,7 8,0 5,9 4,8 7,9 8 4 12 7 NE 1035,4 10 60 0,0
20.03.2019 09:00:00 2,0 -1,3 3,7 1,4 4,9 7,9 4 2 10 6 - 1035,4 10 60 0,0
20.03.2019 08:00:00 0,3 -2,1 0,7 1,1 5,1 7,9 3 1 7 4 NW 1035,1 16 57 0,0
20.03.2019 07:00:00 -2,1 -2,8 -4,0 1,1 5,3 7,9 4 2 5 3 W 1034,6 9 0 0,0
20.03.2019 06:00:00 -1,4 -1,8 -2,6 1,2 5,6 7,9 4 2 5 3 ENE 1034,2 7 0 0,0
20.03.2019 05:00:00 -1,8 -2,7 -3,2 1,4 5,8 7,9 4 2 5 3 NNW 1033,6 11 0 0,0
20.03.2019 04:00:00 -0,5 -1,3 -3,1 1,5 6,1 7,9 2 1 8 5 NE 1033,3 13 0 0,0
20.03.2019 03:00:00 -0,4 -1,7 -3,0 1,5 6,5 8,0 2 1 6 4 NW 1033,4 19 0 0,0
20.03.2019 02:00:00 0,2 -1,3 -1,8 1,7 6,9 8,0 5 3 8 4 E 1033,4 15 0 0,0
20.03.2019 01:00:00 0,7 -0,9 -2,5 2,4 7,3 8,0 0 0 4 2 N 1033,1 19 0 0,0
20.03.2019 00:00:00 1,4 -0,6 -1,0 3,0 7,7 8,0 4 2 14 8 NE 1032,9 21 0 0,0
19.03.2019 23:00:00 2,4 -0,8 -0,7 3,7 8,1 8,0 4 2 10 5 NW 1032,3 25 0 0,0
19.03.2019 22:00:00 3,8 -0,4 -0,2 4,7 8,5 8,0 2 1 3 2 NNE 1031,6 32 0 0,0
19.03.2019 21:00:00 4,8 0,0 0,6 5,8 8,9 8,0 3 2 8 5 S 1031,1 32 0 0,0
19.03.2019 20:00:00 5,9 0,5 1,9 7,1 9,3 8,0 5 3 10 6 NE 1030,5 10 0 0,0
19.03.2019 19:00:00 7,5 -0,9 3,0 8,9 9,5 8,0 10 5 13 7 NE 1029,8 67 18 0,0
19.03.2019 18:00:00 9,2 -0,1 8,0 11,4 9,5 8,0 13 7 22 12 N 1028,9 10 60 0,0
19.03.2019 17:00:00 10,5 -1,0 10,8 13,7 9,3 8,0 13 7 24 13 N 1028,2 10 60 0,0
19.03.2019 16:00:00 10,8 -1,8 12,8 15,6 8,8 8,0 10 5 23 13 N 1028,1 45 60 0,0
19.03.2019 15:00:00 10,7 0,0 13,3 16,4 8,2 8,0 9 5 25 13 N 1028,0 10 60 0,0
19.03.2019 14:00:00 10,2 0,7 13,3 15,5 7,5 8,0 11 6 23 12 NNE 1028,2 42 57 0,0
19.03.2019 13:00:00 8,8 1,8 11,5 15,7 6,6 8,0 10 6 16 9 N 1028,7 24 59 0,0
19.03.2019 12:00:00 8,7 2,7 12,7 13,8 5,9 8,0 5 3 13 7 - 1028,6 10 60 0,0
19.03.2019 11:00:00 7,2 2,0 12,2 10,9 5,3 8,0 5 3 16 8 NNW 1028,6 23 60 0,0
19.03.2019 10:00:00 6,1 1,0 9,0 7,5 5,0 8,0 6 3 9 5 NNW 1028,5 34 60 0,0
19.03.2019 09:00:00 4,4 0,9 8,1 3,9 4,9 8,0 5 3 9 5 W 1028,2 32 23 0,0
19.03.2019 08:00:00 1,4 0,6 1,5 1,9 5,1 8,0 0 0 6 3 N 1028,2 16 0 0,0
19.03.2019 07:00:00 -0,6 -1,2 -1,7 1,2 5,3 8,0 4 2 9 5 N 1027,6 23 0 0,0
19.03.2019 06:00:00 0,8 -0,1 -0,3 1,7 5,4 8,0 4 2 7 4 NNW 1026,8 39 0 0,0
19.03.2019 05:00:00 1,1 0,2 -0,4 2,0 5,6 8,0 5 3 13 7 SSE 1026,3 36 0 0,0
19.03.2019 04:00:00 1,9 0,5 0,5 2,3 5,8 8,0 5 3 11 6 S 1025,8 46 0 0,0
19.03.2019 03:00:00 1,5 0,5 -0,8 2,6 6,0 8,0 3 1 6 4 ESE 1025,7 34 0 0,0
19.03.2019 02:00:00 2,2 1,0 1,4 3,2 6,1 8,0 5 3 11 6 WSW 1025,8 40 0 0,0
19.03.2019 01:00:00 2,4 1,0 1,4 3,2 6,3 8,0 2 1 6 3 WSW 1025,5 40 0 0,0
19.03.2019 00:00:00 2,5 0,6 0,2 3,3 6,6 8,0 4 2 11 6 W 1025,5 40 0 0,0
18.03.2019 23:00:00 3,2 1,1 1,7 3,2 6,9 8,0 8 4 10 5 S 1025,1 42 0 0,0
18.03.2019 22:00:00 1,8 -0,1 -0,6 3,3 7,2 8,0 5 3 9 5 S 1024,9 38 0 0,0
18.03.2019 21:00:00 4,0 1,0 0,7 4,3 7,5 8,0 8 4 13 7 S 1024,3 33 0 0,0
18.03.2019 20:00:00 5,2 1,4 2,5 5,4 7,7 8,0 8 4 14 7 SE 1023,6 10 0 0,0
18.03.2019 19:00:00 6,4 1,7 2,8 7,0 7,8 8,0 5 3 11 6 S 1023,2 70 14 0,0
18.03.2019 18:00:00 8,0 1,7 6,7 9,3 7,6 8,0 9 5 18 10 SSW 1022,4 10 54 0,0
18.03.2019 17:00:00 8,6 2,2 8,9 10,5 7,4 8,0 11 6 17 9 SSW 1022,0 68 54 0,0
18.03.2019 16:00:00 6,6 2,6 6,8 9,9 7,1 8,0 23 12 36 20 WNW 1022,1 23 27 0,0
18.03.2019 15:00:00 8,1 0,8 8,8 8,9 6,9 8,0 19 10 28 15 W 1021,5 70 1 0,0
18.03.2019 14:00:00 7,5 2,2 7,7 8,7 6,6 8,0 11 6 22 12 WSW 1021,8 70 2 0,0
18.03.2019 13:00:00 7,1 2,5 8,0 9,8 6,2 8,0 13 7 28 15 WSW 1022,1 10 27 0,0
18.03.2019 12:00:00 7,0 1,8 7,6 7,3 6,0 8,0 15 8 27 15 SW 1022,1 10 1 0,0
18.03.2019 11:00:00 6,4 2,3 7,7 6,1 5,9 8,0 13 7 22 12 SSW 1021,9 10 0 0,0
18.03.2019 10:00:00 5,2 2,2 5,7 5,3 5,8 8,0 14 8 23 12 SSW 1021,6 70 0 0,0
18.03.2019 09:00:00 4,3 2,2 4,2 4,5 5,8 8,0 13 7 27 15 SSW 1021,0 10 4 0,0
18.03.2019 08:00:00 3,9 2,0 3,8 3,5 5,9 7,9 16 9 27 14 SSW 1020,5 70 16 0,0
18.03.2019 07:00:00 3,0 1,5 2,1 3,0 6,0 7,9 14 8 20 11 SW 1019,8 70 0 0,0
18.03.2019 06:00:00 3,4 1,5 2,4 3,3 6,1 7,9 13 7 19 10 SSW 1019,3 70 0 0,0
18.03.2019 05:00:00 3,3 1,9 2,2 3,4 6,2 7,9 12 7 23 12 S 1018,6 70 0 0,0
18.03.2019 04:00:00 3,7 2,4 2,9 3,7 6,3 7,9 14 7 22 12 S 1018,0 43 0 0,5
18.03.2019 03:00:00 3,7 2,3 3,0 3,5 6,5 7,9 9 5 17 9 WSW 1018,1 10 0 0,0
18.03.2019 02:00:00 4,0 1,8 2,5 2,8 6,8 7,9 13 7 21 11 S 1017,7 59 0 0,0
18.03.2019 01:00:00 3,4 1,8 1,0 2,9 7,0 7,9 9 5 13 7 S 1017,7 62 0 0,0
18.03.2019 00:00:00 3,1 1,4 0,4 3,4 7,3 7,9 8 5 25 13 S 1017,7 70 0 0,0
17.03.2019 23:00:00 4,0 2,0 2,1 3,8 7,6 7,9 13 7 22 12 S 1017,6 46 0 0,0
17.03.2019 22:00:00 4,4 2,4 2,4 4,6 7,9 7,9 16 8 25 13 SSW 1017,3 70 0 0,0
17.03.2019 21:00:00 5,1 2,8 3,4 5,5 8,1 7,9 16 8 23 13 SSW 1016,3 70 0 0,0
17.03.2019 20:00:00 5,2 3,5 4,0 6,2 8,3 7,9 12 7 42 23 SSW 1014,9 70 0 0,9
17.03.2019 19:00:00 6,8 3,8 5,7 6,8 8,5 7,9 10 5 30 16 SW 1014,0 5 3 0,0
17.03.2019 18:00:00 7,4 2,9 6,8 7,3 8,7 7,9 35 19 48 26 W 1013,0 10 0 0,0
17.03.2019 17:00:00 7,8 3,4 7,2 7,9 8,8 7,9 15 8 27 14 SSW 1011,7 70 0 0,0
17.03.2019 16:00:00 7,4 3,3 7,0 8,4 8,9 7,9 16 9 33 18 SW 1010,8 70 0 0,0
17.03.2019 15:00:00 7,9 4,2 6,5 9,3 8,9 7,8 18 10 49 26 NW 1010,0 63 0 0,2
17.03.2019 14:00:00 12,7 5,4 12,1 10,6 8,7 7,8 35 19 51 28 W 1007,5 68 0 0,0
17.03.2019 13:00:00 15,3 6,0 15,9 11,8 8,5 7,8 23 13 51 28 W 1006,2 54 7 0,0
17.03.2019 12:00:00 16,6 2,9 17,2 11,7 8,1 7,8 29 16 49 27 SW 1005,5 45 11 0,0
17.03.2019 11:00:00 15,6 4,3 16,3 11,8 7,7 7,8 27 15 43 23 SSW 1006,0 56 31 0,0
17.03.2019 10:00:00 14,9 3,1 15,1 10,5 7,4 7,8 26 14 39 21 SSW 1006,1 64 53 0,0
17.03.2019 09:00:00 13,7 2,7 14,4 8,0 7,3 7,8 17 9 38 20 SW 1006,5 66 60 0,0
17.03.2019 08:00:00 12,6 1,8 12,1 6,0 7,5 7,8 21 12 34 18 S 1006,1 70 38 0,0
17.03.2019 07:00:00 11,1 1,6 8,4 5,0 7,6 7,8 14 8 26 14 SSW 1005,9 70 0 0,0
17.03.2019 06:00:00 12,0 0,8 9,5 5,6 7,8 7,8 19 10 37 20 SSW 1005,8 70 0 0,0
17.03.2019 05:00:00 12,1 0,0 9,8 5,6 8,0 7,8 24 13 34 18 S 1005,6 70 0 0,0
17.03.2019 04:00:00 12,3 -1,0 9,9 5,9 8,2 7,8 20 11 31 17 S 1006,2 70 0 0,0
17.03.2019 03:00:00 12,2 1,1 9,5 6,5 8,4 7,8 19 10 28 15 SSW 1006,7 70 0 0,0
17.03.2019 02:00:00 11,9 3,7 9,4 7,0 8,5 7,8 21 11 35 19 SSW 1007,6 70 0 0,0
17.03.2019 01:00:00 12,5 4,6 10,4 7,4 8,7 7,8 23 12 38 21 SSW 1008,3 70 0 0,0
17.03.2019 00:00:00 12,7 5,4 10,6 7,6 8,9 7,7 27 15 38 21 S 1009,0 70 0 0,0
16.03.2019 23:00:00 12,6 5,8 10,6 7,8 9,1 7,7 23 12 35 19 S 1009,8 70 0 0,0
16.03.2019 22:00:00 12,8 5,9 10,7 8,0 9,3 7,7 25 13 37 20 S 1010,2 70 0 0,0
16.03.2019 21:00:00 12,4 6,0 10,4 8,2 9,5 7,7 19 10 30 16 S 1010,6 70 0 0,0
16.03.2019 20:00:00 11,9 5,9 9,6 8,8 9,7 7,7 16 8 27 15 SSW 1011,1 68 0 0,0
16.03.2019 19:00:00 12,9 5,7 10,7 9,9 9,8 7,7 17 9 27 14 SSW 1011,5 70 16 0,0
16.03.2019 18:00:00 14,1 5,6 12,7 11,7 9,8 7,7 20 11 40 22 SW 1011,9 68 60 0,0
16.03.2019 17:00:00 14,1 5,5 13,7 12,6 9,6 7,7 24 13 44 24 SSW 1012,7 53 60 0,0
16.03.2019 16:00:00 14,3 5,6 14,7 13,7 9,4 7,7 31 17 48 26 SSW 1013,6 40 55 0,0
16.03.2019 15:00:00 13,8 6,0 15,2 13,0 9,2 7,7 32 17 51 28 SSW 1014,7 35 44 0,0
16.03.2019 14:00:00 13,1 6,0 13,5 12,6 8,9 7,7 28 15 47 25 SSW 1015,2 70 19 0,0
16.03.2019 13:00:00 13,7 6,6 15,9 12,9 8,6 7,7 29 16 45 25 SSW 1016,3 54 30 0,0
16.03.2019 12:00:00 12,8 6,9 13,9 11,1 8,4 7,7 25 14 45 25 SSW 1016,9 66 10 0,0
16.03.2019 11:00:00 11,7 6,5 11,7 9,9 8,3 7,7 27 14 44 24 SSW 1017,4 70 0 0,0
16.03.2019 10:00:00 11,2 7,4 11,1 9,5 8,2 7,7 22 12 37 20 SW 1017,6 68 0 0,0
16.03.2019 09:00:00 10,9 7,7 10,7 9,2 8,2 7,7 20 11 32 17 SW 1017,6 70 0 0,0
16.03.2019 08:00:00 10,9 7,5 10,4 8,9 8,2 7,7 26 14 36 19 WSW 1017,5 70 0 0,0
16.03.2019 07:00:00 10,4 8,0 9,8 8,8 8,2 7,7 21 11 37 20 SSW 1017,2 70 0 0,0
16.03.2019 06:00:00 10,8 8,0 10,3 8,9 8,2 7,7 21 11 34 18 SW 1017,3 70 0 0,0
16.03.2019 05:00:00 10,8 8,4 10,2 8,9 8,2 7,7 19 10 27 14 SSW 1017,2 70 0 0,0
16.03.2019 04:00:00 10,8 8,4 10,3 9,0 8,2 7,7 17 9 33 18 SW 1017,5 70 0 0,0
16.03.2019 03:00:00 10,9 8,7 10,4 9,1 8,2 7,7 25 13 46 25 SSW 1017,4 70 0 0,0
16.03.2019 02:00:00 10,9 8,7 10,3 9,1 8,2 7,7 28 15 39 21 SSW 1017,3 10 0 0,0
16.03.2019 01:00:00 11,0 8,8 10,4 9,2 8,2 7,7 26 14 41 22 SW 1017,4 10 0 0,0
16.03.2019 00:00:00 11,3 8,7 10,7 9,3 8,1 7,7 29 16 46 25 SSW 1017,3 69 0 0,0
15.03.2019 23:00:00 11,3 9,0 10,3 9,3 8,1 7,7 32 18 53 28 SSW 1017,1 15 0 0,0
15.03.2019 22:00:00 11,7 8,8 11,2 9,4 8,1 7,7 33 18 48 26 SW 1016,7 70 0 0,0
15.03.2019 21:00:00 11,8 8,7 11,3 9,4 8,0 7,7 29 15 48 26 SW 1016,0 70 0 0,0
15.03.2019 20:00:00 11,8 8,9 11,1 9,4 7,9 7,7 26 14 45 24 SSW 1015,5 10 0 0,0
15.03.2019 19:00:00 11,6 9,0 11,0 9,5 7,8 7,7 28 15 42 23 SSW 1015,2 10 0 0,0
15.03.2019 18:00:00 11,7 9,4 10,9 9,7 7,7 7,7 26 14 40 22 SSW 1014,4 10 0 0,0
15.03.2019 17:00:00 11,7 9,8 11,0 9,8 7,6 7,7 28 15 43 23 SSW 1014,4 10 0 0,0
15.03.2019 16:00:00 11,9 9,7 11,5 9,8 7,4 7,7 29 16 53 28 SSW 1014,4 10 0 0,0
15.03.2019 15:00:00 12,9 8,6 12,6 9,6 7,2 7,7 39 21 52 28 WSW 1013,9 70 0 0,0
15.03.2019 14:00:00 12,6 8,8 10,8 9,3 7,0 7,7 29 16 45 24 SW 1013,7 10 0 0,0
15.03.2019 13:00:00 12,0 9,1 10,3 9,0 6,8 7,7 26 14 38 20 SW 1013,4 10 0 0,0
15.03.2019 12:00:00 11,0 9,4 10,0 8,6 6,6 7,7 19 10 36 19 SW 1013,0 70 0 0,8
15.03.2019 11:00:00 10,3 9,3 9,6 8,2 6,4 7,7 23 12 41 22 SSW 1012,6 13 0 0,8
15.03.2019 10:00:00 9,4 8,6 8,8 7,5 6,3 7,7 25 14 40 22 SSW 1012,2 11 0 1,6
15.03.2019 09:00:00 8,4 7,7 8,0 6,9 6,2 7,7 20 11 33 18 SSW 1012,2 9 0 0,8
15.03.2019 08:00:00 7,8 6,8 7,1 6,2 6,2 7,7 14 8 23 12 S 1012,5 16 0 0,7
15.03.2019 07:00:00 7,5 6,3 6,6 6,0 6,1 7,7 14 7 22 12 S 1012,8 25 0 0,9
15.03.2019 06:00:00 7,3 6,0 6,3 5,8 6,1 7,7 13 7 24 13 S 1013,3 9 0 0,4
15.03.2019 05:00:00 6,9 5,6 6,2 5,6 6,1 7,7 15 8 22 12 SSW 1013,4 62 0 0,0
15.03.2019 04:00:00 7,7 5,2 6,4 5,6 6,1 7,7 14 8 22 12 SW 1013,2 70 0 0,0
15.03.2019 03:00:00 7,1 5,8 6,0 5,7 6,1 7,7 13 7 27 15 SSW 1013,2 70 0 0,0
15.03.2019 02:00:00 6,9 5,6 6,1 5,7 6,1 7,7 11 6 22 12 SSW 1013,5 70 0 0,0
15.03.2019 01:00:00 7,3 5,4 6,4 5,6 6,0 7,7 14 8 24 13 SSW 1013,1 70 0 0,0
15.03.2019 00:00:00 6,8 5,7 5,9 5,6 6,0 7,7 16 9 20 11 S 1012,6 58 0 0,6
14.03.2019 23:00:00 6,7 5,5 6,0 5,5 6,0 7,7 16 9 27 14 S 1011,5 2,5 0 0,1
14.03.2019 22:00:00 6,7 5,3 5,7 5,3 6,1 7,8 17 9 29 16 S 1010,9 70 0 0,4
14.03.2019 21:00:00 6,0 5,0 5,2 5,1 6,2 7,8 19 11 31 17 SSW 1009,8 18 0 5,2
14.03.2019 20:00:00 5,2 3,8 4,0 5,3 6,3 7,8 12 7 51 28 SE 1010,1 1,4 0 1,2
14.03.2019 19:00:00 5,8 3,6 4,8 5,3 6,3 7,8 35 19 54 29 S 1007,7 10 0 0,2
14.03.2019 18:00:00 5,8 3,4 4,8 5,5 6,3 7,8 35 19 47 25 S 1007,1 10 0 0,0
14.03.2019 17:00:00 6,0 3,4 4,8 5,6 6,3 7,8 35 19 51 28 SSW 1007,7 10 0 0,0
14.03.2019 16:00:00 6,1 3,6 5,0 5,8 6,3 7,8 37 20 54 29 SSW 1007,8 43 0 0,5
14.03.2019 15:00:00 6,1 4,0 5,1 5,8 6,3 7,8 37 20 56 30 SSW 1008,7 10 0 2,1
14.03.2019 14:00:00 6,0 4,0 5,1 5,9 6,3 7,8 41 22 59 32 SSW 1009,8 10 0 1,4
14.03.2019 13:00:00 6,1 3,3 5,0 6,0 6,3 7,8 41 22 65 35 SSW 1011,1 8 0 0,5
14.03.2019 12:00:00 6,1 3,5 5,1 6,0 6,2 7,8 39 21 64 35 SSW 1012,3 17 0 0,4
14.03.2019 11:00:00 5,8 3,2 5,0 5,8 6,2 7,8 36 19 59 32 SSW 1014,0 11 0 0,2
14.03.2019 10:00:00 6,3 2,9 6,1 5,5 6,2 7,8 34 18 48 26 SSW 1015,2 10 0 0,0

tt = Température de l'air
td = dewpoint
tt 5cm = Température de l'air 5cm
tt -5cm = Température de l'air -5cm
tt -20cm = Température de l'air -20cm
tt -100cm = Température de l'air -100cm
ff = Vitesse du vent
fx = gusts
dd = Direction du vent
ppp = reduced air pressure
vv = visibility
sd = Ensoleillement
rr = Quantités de précipitations

stations d'obs. à proximité